Regional Weather Roundup
Issued by NWS

Home | Current Version | Previous Version | Text Only | Print | Product List | Glossary Off
Versions: 1 2 3 4 5 6 7 8 9 10 11 12 13 14 15 16 17 18 19 20 21 22 23 24 25 26 27 28 29 30 31 32 33 34 35 36 37 38 39 40 41 42 43 44 45 46 47 48 49 50

000
ASUS43 KLSX 201257
RWRMO

WEATHER SUMMARY FOR MISSOURI
NATIONAL WEATHER SERVICE SPRINGFIELD MO
700 AM CST FRI JAN 20 2017

NOTE: "FAIR" INDICATES FEW OR NO CLOUDS BELOW 12,000 FEET WITH NO
       SIGNIFICANT WEATHER AND/OR OBSTRUCTIONS TO VISIBILITY.
       CURRENT SKY AND/OR WEATHER CONDITIONS ARE NOT AVAILABLE FOR
       CHILLICOTHE AND FARMINGTON.

MOZ001>031-035>038-043-044-053-054-201400-
...NORTHERN AND WESTERN MISSOURI...

CITY           SKY/WX    TMP DP  RH WIND       PRES   REMARKS
KANSAS CTY INT FOG       45  43  93 E6        29.55F VSB 1/2
LEE`S SUMMIT   FOG       46  46 100 SE5       29.56F VSB 1/4
ST JOSEPH      CLOUDY    44  44 100 SE3       29.58F FOG
CHILLICOTHE      N/A     41  41 100 CALM      29.61R

$$
MOZ066>068-077>081-088>096-101>105-201400-
...SOUTHWEST MISSOURI...

CITY           SKY/WX    TMP DP  RH WIND       PRES   REMARKS
SPRINGFIELD    LGT RAIN  48  47  96 S9        29.60R FOG
JOPLIN         CLOUDY    49  49 100 SE7       29.57S
BRANSON        CLOUDY    45  45 100 CALM      29.62S FOG

$$
MOZ032>034-039>042-045>050-055>058-069>072-201400-
...CENTRAL MISSOURI...

CITY           SKY/WX    TMP DP  RH WIND       PRES   REMARKS
COLUMBIA       NOT AVBL
JEFFERSON CITY CLOUDY    47  46  97 SE6       29.60S
ROLLA          MOCLDY    45  45 100 S5        29.60R FOG
SEDALIA        FOG       45  44  97 E3        29.59F VSB 1/4
WARRENSBURG    FOG       45  43  93 E3        29.57F VSB 1/4
OSAGE BEACH    CLOUDY    46  46 100 SE3       29.62R FOG

$$
MOZ051-052-059>065-201400-
...EAST CENTRAL MISSOURI...

CITY           SKY/WX    TMP DP  RH WIND       PRES   REMARKS
ST LOUIS INTL  CLOUDY    49  47  93 S3        29.64R FOG
ST CHARLES     FOG       45  45 100 CALM      29.63R VSB 1/2

$$
MOZ072>076-082>087-097>100-106>115-201400-
...SOUTH CENTRAL AND SOUTHEAST MISSOURI...

CITY           SKY/WX    TMP DP  RH WIND       PRES   REMARKS
CAPE GIRARDEAU CLOUDY    51  48  89 SW6       29.69R
POPLAR BLUFF   CLOUDY    50  50 100 S3        29.68S
WEST PLAINS    CLOUDY    49  47  93 S7        29.67R

$$


USA.gov is the U.S. government's official web portal to all federal, state and local government web resources and services.